Dobrodošli na spletni strani vremenske postaje Senovo. Vse informacije so informativnega značaja, saj vremenska postaja ni del državne mreže meteoroloških postaj. AKTUALNIH OBVESTIL NI.


Posebna pozornost v zvezi z vremenskimi dogajanji ni potrebna.    Posebna pozornost v zvezi z vremenskimi dogajanji ni potrebna.

Pogled proti Armezu več informacij Pogled proti Armezu


Bohor več informacij Bohor


Radar strel več informacij blitzortung!


Radar padavin več informacij rain snow radar


Obiščite še:

Template documentation
and downloads

And another site



Weather Underground, zgodovina - Tekstovno

Dnevni povzetek za Marc 8, 2017 Enote:  Metrično    Angleško   Obe
« Predhodni Dan
Naslednji Dan »
Dnevni Tedenski Mesečni Letni Po meri
  Višja: Nižja: Povprečje:
Temperatura: -17.8 °C -16.9 °C -13.3 °C
Točka rosišča: -17.8 °C -19.8 °C -18.7 °C
Vlažnost: Humidity % 37 % 51 %
Hitrost vetra: 0 km/h 0 km/h 10.3 km/h
Sunki vetra: 0 km/h - -
Veter:- - ESE
Zračni tlak: 0 hPa 34371.3 hPa -
Padavine: 0 mm    
Historical Graphs
 
 
Tabelarni podarki za Marc 8, 2017
Čas Temperatura Točka rosišča Zračni tlak Veter Hitrost vetra Sunki vetra Vlažnost Intenziteta padavin (urna)
-17.8 °C -17.8 °C 0 hPa Calm     Humidity % 0 mm
00:03 -13.2 °C -19.1 °C 34371.3 hPa ENE 14.5 km/h 26.7 km/h 47 % 0 mm
00:08 -13.3 °C -19.2 °C 34405.1 hPa ENE 10.6 km/h 22 km/h 47 % 0 mm
00:13 -13.3 °C -19.2 °C 34405.1 hPa ENE 11.4 km/h 22 km/h 47 % 0 mm
00:18 -13.3 °C -19.1 °C 34405.1 hPa ENE 13.5 km/h 22.5 km/h 48 % 0 mm
00:23 -13.4 °C -19.1 °C 34405.1 hPa NE 10.1 km/h 22.5 km/h 48 % 0 mm
00:28 -13.4 °C -19.1 °C 34405.1 hPa ENE 6.8 km/h 12.7 km/h 48 % 0 mm
00:33 -13.4 °C -19.1 °C 34405.1 hPa ENE 10.3 km/h 27.2 km/h 48 % 0 mm
00:38 -13.4 °C -19 °C 34405.1 hPa ENE 15.6 km/h 27.2 km/h 49 % 0 mm
00:43 -13.4 °C -19.1 °C 34405.1 hPa ENE 17.4 km/h 28.5 km/h 49 % 0 mm
00:48 -13.4 °C -19.1 °C 34405.1 hPa ENE 15.6 km/h 28.5 km/h 49 % 0 mm
00:53 -13.5 °C -19.1 °C 34371.3 hPa ENE 12.9 km/h 26.2 km/h 49 % 0 mm
00:58 -13.5 °C -19.1 °C 34371.3 hPa NE 13.2 km/h 27.7 km/h 49 % 0 mm
01:03 -13.5 °C -18.9 °C 34371.3 hPa North 12.7 km/h 27.7 km/h 50 % 0 mm
01:08 -13.5 °C -18.9 °C 34371.3 hPa NNE 13.2 km/h 27.2 km/h 50 % 0 mm
01:13 -13.5 °C -18.9 °C 34371.3 hPa NE 12.9 km/h 27.2 km/h 50 % 0 mm
01:18 -13.6 °C -19 °C 34371.3 hPa ENE 12.4 km/h 22 km/h 50 % 0 mm
01:23 -13.6 °C -19.1 °C 34405.1 hPa ENE 12.4 km/h 22 km/h 50 % 0 mm
01:28 -13.6 °C -19.1 °C 34405.1 hPa ENE 10.9 km/h 22.5 km/h 50 % 0 mm
01:33 -13.6 °C -18.9 °C 34405.1 hPa NE 11.1 km/h 22.5 km/h 51 % 0 mm
01:38 -13.6 °C -18.9 °C 34405.1 hPa NE 11.4 km/h 24.8 km/h 51 % 0 mm
01:43 -13.7 °C -18.9 °C 34405.1 hPa NE 7.2 km/h 24.8 km/h 51 % 0 mm
01:48 -13.7 °C -19 °C 34405.1 hPa NE 6.9 km/h 16.3 km/h 51 % 0 mm
01:53 -13.7 °C -19 °C 34405.1 hPa NE 10.1 km/h 15.6 km/h 51 % 0 mm
01:58 -13.7 °C -18.8 °C 34405.1 hPa NE 9.3 km/h 16.9 km/h 52 % 0 mm
02:03 -13.7 °C -18.8 °C 34405.1 hPa NE 10.1 km/h 28.5 km/h 52 % 0 mm
02:08 -13.7 °C -18.8 °C 34405.1 hPa ENE 13.7 km/h 28.5 km/h 52 % 0 mm
02:13 -13.7 °C -18.8 °C 34405.1 hPa NE 13.5 km/h 22.5 km/h 52 % 0 mm
02:18 -13.8 °C -18.9 °C 34405.1 hPa ENE 9 km/h 20.3 km/h 52 % 0 mm
02:23 -13.8 °C -18.9 °C 34428.8 hPa ENE 8 km/h 20.3 km/h 52 % 0 mm
02:28 -13.8 °C -18.8 °C 34428.8 hPa NE 8.2 km/h 16.3 km/h 53 % 0 mm
02:33 -13.8 °C -18.8 °C 34428.8 hPa ENE 10.3 km/h 19.2 km/h 53 % 0 mm
02:38 -13.9 °C -18.8 °C 34428.8 hPa ENE 11.1 km/h 22 km/h 53 % 0 mm
02:43 -13.9 °C -18.8 °C 34428.8 hPa ENE 9.7 km/h 22 km/h 53 % 0 mm
02:48 -13.9 °C -18.8 °C 34428.8 hPa NE 7.6 km/h 15 km/h 53 % 0 mm
02:53 -13.9 °C -18.8 °C 34405.1 hPa NNE 7.6 km/h 17.9 km/h 54 % 0 mm
02:58 -13.9 °C -18.8 °C 34405.1 hPa NE 9.3 km/h 26.7 km/h 54 % 0 mm
03:03 -13.9 °C -18.7 °C 34405.1 hPa ENE 11.4 km/h 26.7 km/h 54 % 0 mm
03:08 -13.9 °C -18.6 °C 34428.8 hPa ENE 11.4 km/h 25.4 km/h 55 % 0 mm
03:13 -13.9 °C -18.6 °C 34428.8 hPa ENE 12.9 km/h 26.7 km/h 55 % 0 mm
03:18 -13.9 °C -18.6 °C 34428.8 hPa ENE 14 km/h 26.7 km/h 55 % 0 mm
03:23 -13.9 °C -18.6 °C 34428.8 hPa ENE 14.8 km/h 26.2 km/h 55 % 0 mm
03:28 -13.9 °C -18.6 °C 34428.8 hPa ENE 15 km/h 25.4 km/h 55 % 0 mm
03:33 -13.9 °C -18.6 °C 34428.8 hPa ENE 14.5 km/h 23 km/h 55 % 0 mm
03:38 -13.9 °C -18.4 °C 34428.8 hPa ENE 14.8 km/h 25.4 km/h 56 % 0 mm
03:43 -13.9 °C -18.4 °C 34428.8 hPa ENE 14.5 km/h 25.4 km/h 56 % 0 mm
03:48 -13.9 °C -18.4 °C 34428.8 hPa NE 13.7 km/h 27.2 km/h 56 % 0 mm
03:54 -13.9 °C -18.5 °C 34428.8 hPa NE 13.2 km/h 27.2 km/h 56 % 0 mm
03:59 -13.9 °C -18.4 °C 34428.8 hPa NE 13.2 km/h 27.2 km/h 56 % 0 mm
04:04 -13.9 °C -18.4 °C 34428.8 hPa ENE 12.7 km/h 27.2 km/h 57 % 0 mm
04:09 -14 °C -18.4 °C 34428.8 hPa ENE 10.3 km/h 22 km/h 57 % 0 mm
04:14 -14 °C -18.4 °C 34428.8 hPa ENE 9.8 km/h 20.3 km/h 57 % 0 mm
04:19 -14.1 °C -18.4 °C 34428.8 hPa ENE 10.6 km/h 20.3 km/h 57 % 0 mm
04:24 -14.1 °C -18.5 °C 34428.8 hPa ENE 6.9 km/h 19.6 km/h 57 % 0 mm
04:29 -14.2 °C -18.4 °C 34428.8 hPa ENE 7.2 km/h 20.3 km/h 58 % 0 mm
04:34 -14.2 °C -18.4 °C 34428.8 hPa ENE 11.1 km/h 20.3 km/h 58 % 0 mm
04:39 -14.2 °C -18.5 °C 34428.8 hPa East 11.1 km/h 22.5 km/h 58 % 0 mm
04:44 -14.2 °C -18.5 °C 34428.8 hPa East 9 km/h 22.5 km/h 58 % 0 mm
04:49 -14.2 °C -18.4 °C 34428.8 hPa ENE 11.4 km/h 31.4 km/h 59 % 0 mm
04:54 -14.2 °C -18.4 °C 34476.3 hPa ENE 16.1 km/h 31.4 km/h 59 % 0 mm
04:59 -14.2 °C -18.4 °C 34476.3 hPa ENE 14.8 km/h 28.5 km/h 59 % 0 mm
05:04 -14.2 °C -18.2 °C 34476.3 hPa NE 13.5 km/h 25.4 km/h 60 % 0 mm
05:09 -14.2 °C -18.2 °C 34428.8 hPa NE 13.5 km/h 25.4 km/h 60 % 0 mm
05:14 -14.3 °C -18.3 °C 34428.8 hPa ENE 10.1 km/h 26.2 km/h 60 % 0 mm
05:19 -14.3 °C -18.3 °C 34428.8 hPa NE 9 km/h 26.2 km/h 60 % 0 mm
05:24 -14.3 °C -18.3 °C 34476.3 hPa NE 9.7 km/h 17.9 km/h 60 % 0 mm
05:29 -14.4 °C -18.4 °C 34476.3 hPa NE 9.3 km/h 15.6 km/h 60 % 0 mm
05:34 -14.4 °C -18.4 °C 34476.3 hPa NE 10.3 km/h 22.5 km/h 60 % 0 mm
05:39 -14.4 °C -18.4 °C 34476.3 hPa NE 9.7 km/h 22.5 km/h 60 % 0 mm
05:44 -14.4 °C -18.4 °C 34476.3 hPa ENE 10.1 km/h 27.7 km/h 60 % 0 mm
05:49 -14.4 °C -18.4 °C 34476.3 hPa NE 14.2 km/h 27.7 km/h 60 % 0 mm
05:54 -14.4 °C -18.4 °C 34476.3 hPa NE 13.7 km/h 17.9 km/h 60 % 0 mm
05:59 -14.4 °C -18.4 °C 34476.3 hPa ENE 12.4 km/h 26.2 km/h 60 % 0 mm
06:04 -14.3 °C -18.3 °C 34476.3 hPa ENE 16.6 km/h 27.2 km/h 60 % 0 mm
06:09 -14.3 °C -18.3 °C 34496.6 hPa ENE 16.6 km/h 27.2 km/h 60 % 0 mm
06:14 -14.3 °C -18.4 °C 34496.6 hPa ENE 14 km/h 26.7 km/h 59 % 0 mm
06:19 -14.4 °C -18.5 °C 34496.6 hPa NE 11.9 km/h 22 km/h 59 % 0 mm
06:24 -14.3 °C -18.4 °C 34533.8 hPa ENE 13.7 km/h 44.1 km/h 59 % 0 mm
06:29 -14.3 °C -18.4 °C 34533.8 hPa ENE 17.5 km/h 44.1 km/h 59 % 0 mm
06:34 -14.3 °C -18.4 °C 34533.8 hPa ENE 17.4 km/h 34.1 km/h 59 % 0 mm
06:39 -14.3 °C -18.4 °C 34533.8 hPa ENE 19.2 km/h 34.1 km/h 59 % 0 mm
06:44 -14.3 °C -18.4 °C 34533.8 hPa ENE 18.3 km/h 27.7 km/h 59 % 0 mm
06:49 -14.3 °C -18.6 °C 34533.8 hPa ENE 17.4 km/h 35.2 km/h 58 % 0 mm
06:54 -14.3 °C -18.6 °C 34533.8 hPa ENE 17.5 km/h 35.2 km/h 58 % 0 mm
06:59 -14.3 °C -18.6 °C 34533.8 hPa NE 10.9 km/h 27.7 km/h 58 % 0 mm
07:04 -14.3 °C -18.6 °C 34533.8 hPa NE 8 km/h 20.9 km/h 58 % 0 mm
07:09 -14.3 °C -18.6 °C 34496.6 hPa NE 10.9 km/h 23.8 km/h 58 % 0 mm
07:14 -14.3 °C -18.6 °C 34496.6 hPa ENE 11.6 km/h 27.7 km/h 58 % 0 mm
07:19 -14.3 °C -18.6 °C 34496.6 hPa ENE 11.6 km/h 27.7 km/h 58 % 0 mm
07:24 -14.2 °C -18.5 °C 34533.8 hPa ENE 9 km/h 22.5 km/h 58 % 0 mm
07:29 -14.2 °C -18.6 °C 34533.8 hPa ENE 9.7 km/h 24.8 km/h 57 % 0 mm
07:34 -14.2 °C -18.6 °C 34533.8 hPa ENE 10.3 km/h 24.8 km/h 57 % 0 mm
07:39 -14.1 °C -18.5 °C 34533.8 hPa ENE 10.6 km/h 20.9 km/h 57 % 0 mm
07:44 -14.1 °C -18.5 °C 34533.8 hPa East 9.8 km/h 20.9 km/h 57 % 0 mm
07:45 -14.1 °C -18.5 °C 34533.8 hPa East 9.8 km/h 19.6 km/h 57 % 0 mm
07:50 -14.1 °C -18.4 °C 34567.7 hPa East 6.4 km/h 12.2 km/h 57 % 0 mm
07:55 -14.1 °C -18.4 °C 34567.7 hPa ENE 9.8 km/h 26.2 km/h 57 % 0 mm
08:00 -14 °C -18.6 °C 34567.7 hPa ENE 11.6 km/h 26.2 km/h 56 % 0 mm
08:05 -13.9 °C -18.5 °C 34601.5 hPa ENE 12.9 km/h 25.4 km/h 56 % 0 mm
08:10 -13.9 °C -18.4 °C 34601.5 hPa ENE 14 km/h 25.4 km/h 56 % 0 mm
08:15 -13.9 °C -18.6 °C 34601.5 hPa ENE 11.9 km/h 24.8 km/h 55 % 0 mm
08:20 -13.9 °C -18.5 °C 34567.7 hPa East 9.7 km/h 24.8 km/h 56 % 0 mm
08:25 -14 °C -18.6 °C 34567.7 hPa East 8 km/h 15.6 km/h 56 % 0 mm
08:30 -14.1 °C -18.6 °C 34567.7 hPa East 8.2 km/h 14 km/h 56 % 0 mm
08:35 -14.1 °C -18.7 °C 34601.5 hPa East 10.9 km/h 17.4 km/h 56 % 0 mm
08:40 -14.1 °C -18.7 °C 34601.5 hPa ESE 13.2 km/h 20.9 km/h 56 % 0 mm
08:45 -14 °C -18.6 °C 34601.5 hPa East 13.5 km/h 22 km/h 56 % 0 mm
08:50 -13.9 °C -18.4 °C 34601.5 hPa ENE 12.9 km/h 22 km/h 56 % 0 mm
08:51 -13.9 °C -18.4 °C 34601.5 hPa ENE 12.9 km/h 22 km/h 56 % 0 mm
08:55 -13.8 °C -18.4 °C 34601.5 hPa ENE 12.2 km/h 20.3 km/h 56 % 0 mm
09:00 -13.7 °C -18.4 °C 34601.5 hPa East 11.6 km/h 20.3 km/h 55 % 0 mm
09:05 -13.6 °C -18.3 °C 34601.5 hPa East 11.6 km/h 19.6 km/h 55 % 0 mm
09:10 -13.5 °C -18.2 °C 34601.5 hPa East 11.9 km/h 19.6 km/h 55 % 0 mm
09:15 -13.4 °C -18.2 °C 34601.5 hPa East 14 km/h 34.1 km/h 54 % 0 mm
09:16 -13.4 °C -18.2 °C 34601.5 hPa East 13.7 km/h 34.1 km/h 54 % 0 mm
09:21 -13.3 °C -18.3 °C 34601.5 hPa East 18.3 km/h 40.7 km/h 53 % 0 mm
09:26 -13.3 °C -18.3 °C 34601.5 hPa East 19.2 km/h 40.7 km/h 53 % 0 mm
09:31 -13.2 °C -18.2 °C 34601.5 hPa East 15.3 km/h 33.2 km/h 53 % 0 mm
09:36 -13.1 °C -18.3 °C 34601.5 hPa East 12.4 km/h 26.7 km/h 52 % 0 mm
09:41 -13.1 °C -18.2 °C 34601.5 hPa ENE 14 km/h 36.5 km/h 52 % 0 mm
09:46 -13 °C -18.2 °C 34601.5 hPa East 12.7 km/h 36.5 km/h 52 % 0 mm
09:51 -12.9 °C -18.3 °C 34601.5 hPa East 13.2 km/h 25.4 km/h 51 % 0 mm
09:56 -12.9 °C -18.2 °C 34601.5 hPa ENE 17.4 km/h 25.4 km/h 51 % 0 mm
10:01 -12.8 °C -18.2 °C 34601.5 hPa East 15.6 km/h 25.4 km/h 51 % 0 mm
10:06 -12.8 °C -18.3 °C 34601.5 hPa East 16.3 km/h 33.2 km/h 50 % 0 mm
10:11 -12.7 °C -18.2 °C 34601.5 hPa East 21.2 km/h 34.1 km/h 50 % 0 mm
10:16 -12.6 °C -18.1 °C 34601.5 hPa ESE 20 km/h 34.1 km/h 50 % 0 mm
10:21 -12.6 °C -18.1 °C 34635.4 hPa East 15 km/h 32.3 km/h 50 % 0 mm
10:26 -12.5 °C -18.2 °C 34635.4 hPa East 15.3 km/h 32.3 km/h 49 % 0 mm
10:31 -12.4 °C -18.1 °C 34635.4 hPa ESE 17.1 km/h 33.6 km/h 49 % 0 mm
10:36 -12.2 °C -18.1 °C 34601.5 hPa ESE 18.2 km/h 33.6 km/h 48 % 0 mm
10:41 -12.1 °C -17.9 °C 34601.5 hPa ESE 19.6 km/h 32.3 km/h 48 % 0 mm
10:46 -11.9 °C -17.9 °C 34601.5 hPa East 17.1 km/h 32.3 km/h 47 % 0 mm
10:51 -11.8 °C -17.7 °C 34601.5 hPa East 15.8 km/h 28.5 km/h 48 % 0 mm
10:56 -11.7 °C -17.8 °C 34601.5 hPa East 17.4 km/h 28.5 km/h 47 % 0 mm
11:01 -11.6 °C -17.8 °C 34601.5 hPa East 15.3 km/h 31.9 km/h 46 % 0 mm
11:06 -11.4 °C -17.7 °C 34601.5 hPa East 16.1 km/h 31.9 km/h 46 % 0 mm
11:11 -11.3 °C -17.6 °C 34601.5 hPa ESE 18.2 km/h 31.9 km/h 46 % 0 mm
11:16 -11.3 °C -17.6 °C 34601.5 hPa East 15.8 km/h 26.2 km/h 46 % 0 mm
11:21 -11.2 °C -17.6 °C 34601.5 hPa East 17.5 km/h 31.4 km/h 45 % 0 mm
11:26 -11.1 °C -17.7 °C 34601.5 hPa ESE 20 km/h 41.2 km/h 44 % 0 mm
11:31 -11.1 °C -17.7 °C 34601.5 hPa ESE 17.5 km/h 41.2 km/h 44 % 0 mm
11:36 -11.1 °C -17.8 °C 34601.5 hPa ESE 19.6 km/h 41.7 km/h 43 % 0 mm
11:41 -11 °C -17.9 °C 34601.5 hPa ESE 20.4 km/h 46.3 km/h 42 % 0 mm
11:46 -10.9 °C -17.7 °C 34601.5 hPa East 17.5 km/h 46.3 km/h 43 % 0 mm
11:51 -10.8 °C -17.8 °C 34601.5 hPa East 17.5 km/h 33.2 km/h 42 % 0 mm
11:56 -10.8 °C -17.8 °C 34601.5 hPa ESE 16.6 km/h 33.2 km/h 42 % 0 mm
12:01 -10.7 °C -17.9 °C 34601.5 hPa ESE 15.3 km/h 29.5 km/h 41 % 0 mm
12:06 -10.8 °C -18.2 °C 34601.5 hPa East 17.4 km/h 33.6 km/h 40 % 0 mm
12:11 -10.7 °C -18.1 °C 34601.5 hPa East 17.5 km/h 33.6 km/h 40 % 0 mm
12:16 -10.7 °C -18.1 °C 34601.5 hPa East 18.3 km/h 33.6 km/h 40 % 0 mm
12:21 -10.8 °C -18.2 °C 34567.7 hPa ENE 20.3 km/h 33.6 km/h 40 % 0 mm
12:26 -10.7 °C -18.1 °C 34567.7 hPa ENE 20 km/h 33.2 km/h 40 % 0 mm
12:31 -10.8 °C -18.2 °C 34567.7 hPa ENE 20.9 km/h 31.4 km/h 40 % 0 mm
12:36 -10.8 °C -18.3 °C 34567.7 hPa ENE 19.6 km/h 31.4 km/h 39 % 0 mm
12:41 -10.8 °C -18.3 °C 34567.7 hPa ENE 18.7 km/h 33.6 km/h 39 % 0 mm
12:46 -10.8 °C -18.2 °C 34567.7 hPa ENE 18.7 km/h 33.6 km/h 40 % 0 mm
12:51 -10.8 °C -18.3 °C 34567.7 hPa ENE 16.9 km/h 27.7 km/h 39 % 0 mm
12:56 -10.8 °C -18.3 °C 34567.7 hPa ENE 16.3 km/h 37 km/h 39 % 0 mm
13:01 -10.6 °C -18 °C 34567.7 hPa East 16.6 km/h 37 km/h 40 % 0 mm
13:07 -10.6 °C -18.2 °C 34567.7 hPa East 15.6 km/h 27.7 km/h 39 % 0 mm
13:12 -10.7 °C -18.2 °C 34567.7 hPa ENE 16.6 km/h 32.3 km/h 39 % 0 mm
13:17 -10.7 °C -18.2 °C 34567.7 hPa ENE 18.3 km/h 32.3 km/h 39 % 0 mm
13:22 -10.7 °C -18.2 °C 34567.7 hPa ENE 20.3 km/h 44.6 km/h 39 % 0 mm
13:27 -10.6 °C -18.2 °C 34567.7 hPa East 18.3 km/h 44.6 km/h 39 % 0 mm
13:32 -10.6 °C -18.2 °C 34567.7 hPa ENE 15.6 km/h 26.2 km/h 39 % 0 mm
13:37 -10.4 °C -18 °C 34533.8 hPa ENE 14.5 km/h 25.4 km/h 39 % 0 mm
13:42 -10.4 °C -18 °C 34533.8 hPa East 15.8 km/h 27.2 km/h 39 % 0 mm
13:47 -10.4 °C -18.2 °C 34533.8 hPa East 17.4 km/h 27.2 km/h 38 % 0 mm
13:52 -10.4 °C -18.2 °C 34533.8 hPa ENE 17.5 km/h 48.6 km/h 38 % 0 mm
13:57 -10.5 °C -18.3 °C 34533.8 hPa ENE 18.2 km/h 48.6 km/h 38 % 0 mm
14:02 -10.4 °C -18.2 °C 34533.8 hPa ENE 13.5 km/h 25.4 km/h 38 % 0 mm
14:07 -10.3 °C -17.9 °C 34533.8 hPa East 10.3 km/h 20.9 km/h 39 % 0 mm
14:12 -10.2 °C -18 °C 34533.8 hPa East 14 km/h 28.5 km/h 38 % 0 mm
14:17 -10.3 °C -18.1 °C 34533.8 hPa ENE 16.6 km/h 28.5 km/h 38 % 0 mm
14:22 -10.3 °C -18.1 °C 34533.8 hPa ENE 14.5 km/h 27.7 km/h 38 % 0 mm
14:27 -10.2 °C -18 °C 34533.8 hPa ENE 12.7 km/h 26.2 km/h 38 % 0 mm
14:32 -10.2 °C -18 °C 34533.8 hPa ENE 12.4 km/h 24.8 km/h 38 % 0 mm
14:37 -10.2 °C -18.2 °C 34533.8 hPa ENE 14.8 km/h 32.3 km/h 37 % 0 mm
14:42 -10.3 °C -18.1 °C 34533.8 hPa NE 15.8 km/h 32.3 km/h 38 % 0 mm
14:47 -10.2 °C -18 °C 34533.8 hPa NE 11.4 km/h 24.8 km/h 38 % 0 mm
14:52 -10.2 °C -18 °C 34496.6 hPa NE 10.9 km/h 33.2 km/h 38 % 0 mm
14:57 -10.1 °C -17.9 °C 34496.6 hPa ENE 10.6 km/h 33.2 km/h 38 % 0 mm
15:03 -10.1 °C -17.9 °C 34496.6 hPa NE 8 km/h 19.6 km/h 38 % 0 mm
15:08 -10.1 °C -17.9 °C 34533.8 hPa NNE 7.2 km/h 19.6 km/h 38 % 0 mm
15:13 -10.1 °C -17.9 °C 34533.8 hPa NE 9.7 km/h 27.2 km/h 38 % 0 mm
15:18 -10.2 °C -18 °C 34533.8 hPa ENE 10.3 km/h 27.2 km/h 38 % 0 mm
15:23 -10.2 °C -18 °C 34533.8 hPa East 11.1 km/h 22.5 km/h 38 % 0 mm
15:28 -10.2 °C -18 °C 34533.8 hPa East 14 km/h 22.5 km/h 38 % 0 mm
15:33 -10.1 °C -17.9 °C 34533.8 hPa East 13.5 km/h 26.7 km/h 38 % 0 mm
15:38 -10 °C -18.1 °C 34533.8 hPa ENE 11.6 km/h 26.7 km/h 37 % 0 mm
15:43 -10.1 °C -18.1 °C 34533.8 hPa ENE 12.2 km/h 20.3 km/h 37 % 0 mm
15:48 -10.1 °C -18.2 °C 34533.8 hPa East 13.7 km/h 24.8 km/h 37 % 0 mm
15:53 -10.1 °C -18.1 °C 34533.8 hPa ENE 12.4 km/h 24.8 km/h 37 % 0 mm
15:58 -10.1 °C -18.1 °C 34533.8 hPa ENE 11.9 km/h 22.5 km/h 37 % 0 mm
16:03 -10.2 °C -18.2 °C 34533.8 hPa ENE 13.2 km/h 22.5 km/h 37 % 0 mm
16:08 -10.3 °C -18.3 °C 34533.8 hPa East 14.2 km/h 20.9 km/h 37 % 0 mm
16:13 -10.4 °C -18.2 °C 34533.8 hPa ESE 12.7 km/h 19.6 km/h 38 % 0 mm
16:18 -10.6 °C -18.3 °C 34533.8 hPa East 11.1 km/h 19.6 km/h 38 % 0 mm
16:23 -10.6 °C -18.4 °C 34533.8 hPa ENE 11.6 km/h 25.4 km/h 38 % 0 mm
16:28 -10.7 °C -18.5 °C 34533.8 hPa ENE 13.2 km/h 29.5 km/h 38 % 0 mm
16:33 -10.8 °C -18.6 °C 34533.8 hPa ENE 11.9 km/h 29.5 km/h 38 % 0 mm
16:38 -10.8 °C -18.6 °C 34533.8 hPa East 12.4 km/h 22 km/h 38 % 0 mm
16:43 -10.9 °C -18.7 °C 34533.8 hPa ENE 15 km/h 20.9 km/h 38 % 0 mm
16:48 -10.9 °C -18.7 °C 34533.8 hPa NE 14 km/h 20.9 km/h 38 % 0 mm
16:53 -11 °C -18.7 °C 34533.8 hPa ENE 15 km/h 25.4 km/h 38 % 0 mm
16:58 -11.1 °C -18.8 °C 34533.8 hPa ENE 15.6 km/h 25.4 km/h 38 % 0 mm
17:03 -11.1 °C -18.8 °C 34533.8 hPa East 11.9 km/h 19.6 km/h 38 % 0 mm
17:08 -11.2 °C -18.9 °C 34533.8 hPa East 9.8 km/h 18.7 km/h 38 % 0 mm
17:13 -11.2 °C -18.7 °C 34533.8 hPa East 9.7 km/h 16.3 km/h 39 % 0 mm
17:18 -11.3 °C -18.8 °C 34533.8 hPa East 9 km/h 16.3 km/h 39 % 0 mm
17:23 -11.4 °C -18.9 °C 34533.8 hPa ESE 9 km/h 15.6 km/h 39 % 0 mm
17:28 -11.5 °C -19 °C 34533.8 hPa ESE 9.3 km/h 15 km/h 39 % 0 mm
17:33 -11.6 °C -19.1 °C 34533.8 hPa ESE 8 km/h 12.7 km/h 39 % 0 mm
17:38 -11.7 °C -19 °C 34533.8 hPa ESE 3.4 km/h 11.1 km/h 40 % 0 mm
17:43 -11.8 °C -19.1 °C 34533.8 hPa ESE 1.3 km/h 9.8 km/h 40 % 0 mm
17:48 -12 °C -19.3 °C 34533.8 hPa ESE 3.4 km/h 9.8 km/h 40 % 0 mm
17:53 -12.2 °C -19.3 °C 34533.8 hPa ESE 2.6 km/h 7.6 km/h 41 % 0 mm
17:58 -12.4 °C -19.2 °C 34533.8 hPa NE 0.3 km/h 4.2 km/h 42 % 0 mm
18:03 -12.7 °C -19.3 °C 34533.8 hPa NW 2.1 km/h 6.4 km/h 43 % 0 mm
18:08 -13.1 °C -19.3 °C 34533.8 hPa NW 2.3 km/h 6.4 km/h 45 % 0 mm
18:13 -13.2 °C -19.3 °C 34533.8 hPa WSW 0.5 km/h 5.6 km/h 46 % 0 mm
18:18 -13.4 °C -19.3 °C 34533.8 hPa SW 1 km/h 5.6 km/h 47 % 0 mm
18:24 -13.7 °C -19.6 °C 34567.7 hPa WNW 1.8 km/h 6.9 km/h 47 % 0 mm
18:29 -13.8 °C -19.6 °C 34567.7 hPa NW 1 km/h 6.9 km/h 48 % 0 mm
18:34 -13.9 °C -19.5 °C 34567.7 hPa Calm   4.2 km/h 49 % 0 mm
18:39 -14.2 °C -19.7 °C 34567.7 hPa WNW 0.5 km/h 5.6 km/h 49 % 0 mm
18:44 -14.3 °C -19.7 °C 34567.7 hPa NW 1.6 km/h 7.6 km/h 50 % 0 mm
18:49 -14.4 °C -19.8 °C 34567.7 hPa NW 2.9 km/h 8 km/h 50 % 0 mm
18:54 -14.6 °C -19.8 °C 34567.7 hPa NNW 4.2 km/h 10.3 km/h 51 % 0 mm
18:59 -14.6 °C -19.8 °C 34567.7 hPa North 3.1 km/h 10.3 km/h 51 % 0 mm
19:04 -14.6 °C -19.7 °C 34567.7 hPa WSW 1.6 km/h 6.4 km/h 52 % 0 mm
19:09 -14.6 °C -19.6 °C 34567.7 hPa West 3.9 km/h 8 km/h 52 % 0 mm
19:14 -14.5 °C -19.4 °C 34567.7 hPa WNW 5.5 km/h 8.9 km/h 53 % 0 mm
19:19 -14.6 °C -19.5 °C 34567.7 hPa WNW 4.2 km/h 8.9 km/h 53 % 0 mm
19:24 -14.6 °C -19.6 °C 34567.7 hPa West 2.1 km/h 6.9 km/h 53 % 0 mm
19:29 -14.7 °C -19.4 °C 34567.7 hPa NW 1.6 km/h 7.6 km/h 54 % 0 mm
19:34 -14.7 °C -19.5 °C 34567.7 hPa NNW 2.3 km/h 14 km/h 54 % 0 mm
19:39 -14.6 °C -19.4 °C 34533.8 hPa NW 3.7 km/h 14 km/h 54 % 0 mm
19:44 -14.6 °C -19.4 °C 34533.8 hPa SSE 7.7 km/h 16.9 km/h 54 % 0 mm
19:49 -14.4 °C -19.2 °C 34533.8 hPa South 11.4 km/h 18.7 km/h 54 % 0 mm
19:54 -14.2 °C -19 °C 34567.7 hPa SSW 10.3 km/h 18.7 km/h 54 % 0 mm
19:59 -14.2 °C -19 °C 34567.7 hPa SSW 8 km/h 12.7 km/h 54 % 0 mm
20:04 -14.4 °C -19.2 °C 34567.7 hPa WSW 5.1 km/h 11.1 km/h 54 % 0 mm
20:09 -14.5 °C -19.3 °C 34567.7 hPa WNW 3.7 km/h 8 km/h 54 % 0 mm
20:14 -14.7 °C -19.3 °C 34567.7 hPa WNW 2.1 km/h 8 km/h 55 % 0 mm
20:19 -14.8 °C -19.4 °C 34567.7 hPa Calm     55 % 0 mm
20:24 -14.9 °C -19.4 °C 34601.5 hPa Calm   2.9 km/h 56 % 0 mm
20:29 -15.1 °C -19.6 °C 34601.5 hPa WNW 1.3 km/h 6.4 km/h 56 % 0 mm
20:34 -15.2 °C -19.5 °C 34601.5 hPa WNW 1.8 km/h 6.4 km/h 57 % 0 mm
20:39 -15.3 °C -19.6 °C 34601.5 hPa NW 0.5 km/h 5.1 km/h 58 % 0 mm
20:44 -15.4 °C -19.6 °C 34601.5 hPa West 1 km/h 8 km/h 58 % 0 mm
20:49 -15.5 °C -19.6 °C 34601.5 hPa West 2.6 km/h 8.9 km/h 59 % 0 mm
20:54 -15.6 °C -19.6 °C 34601.5 hPa NW 2.3 km/h 8.9 km/h 59 % 0 mm
20:59 -15.7 °C -19.6 °C 34601.5 hPa NNW 1.3 km/h 5.6 km/h 60 % 0 mm
21:04 -15.8 °C -19.6 °C 34601.5 hPa NNW 0.8 km/h 5.6 km/h 61 % 0 mm
21:09 -15.8 °C -19.6 °C 34635.4 hPa Calm     61 % 0 mm
21:14 -15.9 °C -19.6 °C 34635.4 hPa Calm     62 % 0 mm
21:19 -15.9 °C -19.5 °C 34635.4 hPa Calm     63 % 0 mm
21:24 -16.1 °C -19.6 °C 34601.5 hPa Calm     63 % 0 mm
21:29 -16.1 °C -19.6 °C 34601.5 hPa North 0.3 km/h 4.2 km/h 63 % 0 mm
21:34 -16.1 °C -19.6 °C 34601.5 hPa North 0.3 km/h 4.2 km/h 64 % 0 mm
21:39 -16.1 °C -19.6 °C 34601.5 hPa Calm     64 % 0 mm
21:44 -16.2 °C -19.5 °C 34601.5 hPa Calm     65 % 0 mm
21:49 -16.3 °C -19.4 °C 34601.5 hPa Calm     66 % 0 mm
21:54 -16.3 °C -19.4 °C 34601.5 hPa Calm     66 % 0 mm
21:59 -16.3 °C -19.5 °C 34601.5 hPa Calm     66 % 0 mm
22:04 -16.4 °C -19.4 °C 34601.5 hPa Calm     67 % 0 mm
22:09 -16.4 °C -19.5 °C 34567.7 hPa WNW 0.8 km/h 6.4 km/h 67 % 0 mm
22:14 -16.4 °C -19.5 °C 34567.7 hPa WNW 1.3 km/h 6.4 km/h 67 % 0 mm
22:19 -16.5 °C -19.6 °C 34567.7 hPa NW 1 km/h 5.1 km/h 67 % 0 mm
22:25 -16.6 °C -19.5 °C 34567.7 hPa NW 0.3 km/h 5.1 km/h 68 % 0 mm
22:30 -16.6 °C -19.6 °C 34567.7 hPa Calm     68 % 0 mm
22:35 -16.7 °C -19.6 °C 34567.7 hPa Calm     68 % 0 mm
22:40 -16.7 °C -19.6 °C 34567.7 hPa Calm     69 % 0 mm
22:45 -16.7 °C -19.6 °C 34567.7 hPa Calm     69 % 0 mm
22:50 -16.8 °C -19.6 °C 34601.5 hPa Calm     69 % 0 mm
22:55 -16.8 °C -19.7 °C 34601.5 hPa Calm     69 % 0 mm
23:00 -16.8 °C -19.6 °C 34601.5 hPa Calm     70 % 0 mm
23:05 -16.9 °C -19.6 °C 34567.7 hPa NNW 0.8 km/h 5.6 km/h 70 % 0 mm
23:10 -16.9 °C -19.5 °C 34567.7 hPa NNW 0.8 km/h 5.6 km/h 71 % 0 mm
23:15 -16.9 °C -19.5 °C 34567.7 hPa Calm     71 % 0 mm
23:20 -16.9 °C -19.5 °C 34601.5 hPa Calm   2.9 km/h 71 % 0 mm
23:25 -16.9 °C -19.5 °C 34601.5 hPa Calm   3.4 km/h 71 % 0 mm
23:30 -16.9 °C -19.4 °C 34601.5 hPa WNW 1.3 km/h 6.9 km/h 72 % 0 mm
23:35 -16.9 °C -19.4 °C 34601.5 hPa WNW 1.8 km/h 6.9 km/h 72 % 0 mm
23:40 -16.9 °C -19.4 °C 34601.5 hPa West 0.8 km/h 5.6 km/h 72 % 0 mm
23:45 -16.9 °C -19.3 °C 34601.5 hPa Calm     73 % 0 mm
23:50 -16.9 °C -19.3 °C 34567.7 hPa Calm     73 % 0 mm
23:55 -16.9 °C -19.3 °C 34567.7 hPa Calm     73 % 0 mm
Vremenska postaja Senovo
Podatki zbrani iz Weather Underground - 3 mb

Script developed by  Jim McMurry - jmcmurry@mwt.net Adapted for the template by  Wim van der Kuil - Leuven-Template.eu

Vremenski podatki so objavljeni na:

European Weather Network

WeatherCloud

Weather Underground

AWEKAS

HAMweather, WeatherForYou, PWS Weather

MapView

Geostik

Slovenia weather network

Oprema, ki se uporablja:

Vremenski program
Cumulus

Vremenski server
Asus

Cumulus

Asus